| time (UTC) | temp F | wind direction | speed MPH | gust MPH | rain 1hr in | rain 24hr in | rain mn in | humidity % | barometer mb |
| 20260507093045 | 50 | 268 | 0.0 | 1.0 | 0.00 | 0.00 | 0.00 | ||
| 20260507090057 | 51 | 268 | 0.0 | 1.0 | 0.00 | 0.00 | 0.00 | ||
| 20260507083033 | 51 | 237 | 0.0 | 1.0 | 0.00 | 0.00 | 0.00 | ||
| 20260507073044 | 51 | 226 | 0.0 | 2.0 | 0.00 | 0.00 | 0.00 | ||
| 20260507070056 | 51 | 252 | 0.0 | 1.0 | 0.00 | 0.00 | 0.00 | ||
| 20260507063030 | 51 | 325 | 1.0 | 3.0 | 0.00 | 0.00 | 0.00 | ||
| 20260507050056 | 53 | 217 | 0.0 | 3.0 | 0.00 | 0.00 | 0.00 | ||
| 20260507043036 | 53 | 238 | 1.0 | 4.0 | 0.00 | 0.00 | 0.00 | ||
| 20260507033046 | 54 | 224 | 0.0 | 2.0 | 0.00 | 0.00 | 0.00 | ||
| 20260507023041 | 55 | 10 | 1.0 | 4.0 | 0.00 | 0.00 | 0.00 | ||
| 20260507020049 | 55 | 212 | 1.0 | 5.0 | 0.00 | 0.00 | 0.00 | ||
| 20260507013050 | 55 | 330 | 1.0 | 4.0 | 0.00 | 0.00 | 0.00 | ||
| 20260507010100 | 56 | 248 | 1.0 | 4.0 | 0.00 | 0.00 | 0.00 | ||
| 20260507003037 | 56 | 282 | 2.0 | 4.0 | 0.00 | 0.00 | 0.00 | ||
| 20260506233045 | 55 | 219 | 0.0 | 2.0 | 0.00 | 0.00 | 0.00 | ||
| 20260506230053 | 55 | 262 | 1.0 | 10.0 | 0.00 | 0.00 | 0.00 | ||
| 20260506223054 | 57 | 242 | 2.0 | 9.0 | 0.00 | 0.00 | 0.00 | ||
| 20260506213043 | 57 | 222 | 1.0 | 8.0 | 0.00 | 0.00 | 0.00 | ||
| 20260506210112 | 58 | 224 | 2.0 | 6.0 | 0.00 | 0.00 | 0.00 | ||
| 20260506203048 | 58 | 251 | 1.0 | 8.0 | 0.00 | 0.00 | 0.00 | ||
| 20260506200101 | 56 | 243 | 1.0 | 6.0 | 0.00 | 0.00 | 0.00 | ||
| 20260506193043 | 57 | 285 | 1.0 | 6.0 | 0.00 | 0.00 | 0.00 | ||
| 20260506183033 | 55 | 215 | 1.0 | 4.0 | 0.00 | 0.00 | 0.00 | ||
| 20260506180104 | 54 | 270 | 0.0 | 3.0 | 0.00 | 0.00 | 0.00 | ||
| 20260506173044 | 54 | 239 | 2.0 | 6.0 | 0.00 | 0.00 | 0.00 | ||
| 20260506170055 | 54 | 249 | 1.0 | 6.0 | 0.00 | 0.00 | 0.00 | ||
| 20260506163036 | 54 | 265 | 1.0 | 5.0 | 0.00 | 0.00 | 0.00 | ||
| 20260506160046 | 54 | 239 | 0.0 | 2.0 | 0.00 | 0.00 | 0.00 | ||
| 20260506150056 | 54 | 262 | 0.0 | 5.0 | 0.00 | 0.00 | 0.00 | ||
| 20260506143036 | 53 | 235 | 0.0 | 1.0 | 0.00 | 0.00 | 0.00 | ||
| 20260506140104 | 53 | 176 | 0.0 | 2.0 | 0.00 | 0.00 | 0.00 | ||
| 20260506133044 | 53 | 280 | 0.0 | 1.0 | 0.00 | 0.00 | 0.00 | ||
| 20260506130053 | 53 | 234 | 0.0 | 1.0 | 0.00 | 0.00 | 0.00 | ||
| 20260506123037 | 53 | 262 | 0.0 | 2.0 | 0.00 | 0.00 | 0.00 | ||
| 20260506120108 | 53 | 211 | 0.0 | 2.0 | 0.00 | 0.00 | 0.00 | ||
| 20260506113048 | 53 | 242 | 0.0 | 5.0 | 0.00 | 0.00 | 0.00 | ||
| 20260506103041 | 53 | 217 | 0.0 | 2.0 | 0.00 | 0.00 | 0.00 | ||
| 20260506100049 | 53 | 239 | 0.0 | 1.0 | 0.00 | 0.00 | 0.00 |